TimeEDT,TemperatureF,Dew PointF,Humidity,Sea Level PressureIn,VisibilityMPH,Wind Direction,Wind SpeedMPH,Gust SpeedMPH,PrecipitationIn,Events,Conditions,WindDirDegrees,DateUTC
12:53 AM,35.1,33.1,92,30.17,7.0,WSW,3.5,-,N/A,,Clear,250,2012-10-08 04:53:00
1:00 AM,32.0,32.0,100,30.15,1.2,WSW,3.5,-,N/A,,Clear,250,2012-10-08 05:00:00
1:08 AM,30.2,28.4,93,30.15,0.2,WSW,3.5,-,N/A,Fog,Light Freezing Fog,250,2012-10-08 05:08:00
1:25 AM,33.8,32.0,93,30.15,1.5,Calm,Calm,-,N/A,,Clear,0,2012-10-08 05:25:00
1:33 AM,32.0,30.2,93,30.16,0.8,Calm,Calm,-,N/A,,Clear,0,2012-10-08 05:33:00
1:53 AM,28.9,28.0,96,30.18,0.2,WSW,3.5,-,N/A,Fog,Light Freezing Fog,250,2012-10-08 05:53:00
2:53 AM,28.9,28.0,96,30.20,0.2,SW,3.5,-,N/A,Fog,Light Freezing Fog,230,2012-10-08 06:53:00
3:26 AM,30.2,28.4,93,30.17,0.2,Calm,Calm,-,N/A,Fog,Light Freezing Fog,0,2012-10-08 07:26:00
3:53 AM,28.0,27.0,96,30.19,0.2,Calm,Calm,-,N/A,Fog,Light Freezing Fog,0,2012-10-08 07:53:00
4:53 AM,27.0,25.0,92,30.19,0.2,Calm,Calm,-,N/A,Fog,Light Freezing Fog,0,2012-10-08 08:53:00
5:53 AM,26.1,24.1,92,30.20,0.2,Calm,Calm,-,N/A,Fog,Light Freezing Fog,0,2012-10-08 09:53:00
6:09 AM,24.8,23.0,93,30.18,1.2,Calm,Calm,-,N/A,,Partly Cloudy,0,2012-10-08 10:09:00
6:16 AM,26.6,24.8,93,30.18,1.8,Calm,Calm,-,N/A,,Scattered Clouds,0,2012-10-08 10:16:00
6:18 AM,26.6,24.8,93,30.18,2.0,Calm,Calm,-,N/A,,Mostly Cloudy,0,2012-10-08 10:18:00
6:23 AM,26.6,24.8,93,30.18,1.2,Calm,Calm,-,N/A,,Mostly Cloudy,0,2012-10-08 10:23:00
6:31 AM,26.6,24.8,93,30.19,0.5,Calm,Calm,-,N/A,Fog,Light Freezing Fog,0,2012-10-08 10:31:00
6:53 AM,25.0,23.0,92,30.21,0.2,Calm,Calm,-,N/A,Fog,Light Freezing Fog,0,2012-10-08 10:53:00
7:40 AM,26.6,24.8,93,30.20,1.2,Calm,Calm,-,N/A,,Partly Cloudy,0,2012-10-08 11:40:00
7:44 AM,26.6,24.8,93,30.20,2.0,Calm,Calm,-,N/A,,Partly Cloudy,0,2012-10-08 11:44:00
7:51 AM,26.6,24.8,93,30.20,6.0,Calm,Calm,-,N/A,,Clear,0,2012-10-08 11:51:00
7:53 AM,26.1,24.1,92,30.22,5.0,Calm,Calm,-,N/A,,Clear,0,2012-10-08 11:53:00
8:53 AM,32.0,30.0,92,30.24,7.0,Calm,Calm,-,N/A,,Clear,0,2012-10-08 12:53:00
9:53 AM,39.0,36.0,89,30.23,10.0,WSW,5.8,-,N/A,,Clear,250,2012-10-08 13:53:00
10:53 AM,46.0,32.0,58,30.22,10.0,SW,9.2,-,N/A,,Clear,230,2012-10-08 14:53:00
11:53 AM,50.0,28.9,44,30.23,10.0,SW,12.7,-,N/A,,Clear,230,2012-10-08 15:53:00
12:53 PM,51.1,28.0,41,30.22,10.0,SSW,12.7,18.4,N/A,,Partly Cloudy,210,2012-10-08 16:53:00
1:53 PM,52.0,26.1,37,30.19,10.0,SW,10.4,17.3,N/A,,Clear,230,2012-10-08 17:53:00
2:53 PM,53.1,24.1,32,30.17,10.0,SW,10.4,17.3,N/A,,Clear,230,2012-10-08 18:53:00
3:53 PM,54.0,25.0,33,30.15,10.0,SW,10.4,-,N/A,,Clear,220,2012-10-08 19:53:00
4:53 PM,53.1,25.0,34,30.14,10.0,SSW,10.4,-,N/A,,Clear,200,2012-10-08 20:53:00
5:53 PM,52.0,25.0,35,30.14,10.0,SW,9.2,-,N/A,,Clear,220,2012-10-08 21:53:00
6:53 PM,48.0,27.0,44,30.14,10.0,SSW,5.8,-,N/A,,Clear,200,2012-10-08 22:53:00
7:53 PM,46.0,27.0,47,30.13,10.0,South,3.5,-,N/A,,Clear,190,2012-10-08 23:53:00
8:53 PM,37.0,28.0,70,30.14,10.0,Calm,Calm,-,N/A,,Clear,0,2012-10-09 00:53:00
9:53 PM,33.1,28.0,82,30.15,10.0,Calm,Calm,-,N/A,,Clear,0,2012-10-09 01:53:00
10:53 PM,30.0,27.0,88,30.16,10.0,Calm,Calm,-,N/A,,Clear,0,2012-10-09 02:53:00
11:53 PM,28.9,25.0,85,30.15,10.0,Calm,Calm,-,N/A,,Clear,0,2012-10-09 03:53:00